星链-4310 (STARLINK-4310 )

导读 | 星芒AI

STARLINK-4310 是 SpaceX Starlink 项目中的一颗低轨通信卫星,属于第 43 批发射的星链卫星群。该卫星旨在为全球用户提供高速互联网服务,特别关注网络覆盖不足的地区。它运行在约 550 公里的轨道高度,采用先进的推进系统和激光通信技术,以提升连接效率和稳定性。作为星链星座的一部分,STARLINK-4310 有助于构建一个全球性的宽带网络,推动远程教育、医疗和经济发展。

基本信息
目录编号:
53074
目录名称:
STARLINK-4310
国际标识:
2022-077AH
轨道中心:
EARTH
卫星名称:
星链-4310
卫星全名:
星链-4310 (STARLINK-4310 )
卫星状态:
在轨 (已飞行1259 天)
发射日期:
2022-07-11 UTC
国别 :
美国 (US)
星等 :
--
轨道信息
数据来源 国际轨道数据 AOE轨道数据
星历时间 2025-12-20T19:47:24+0800
18小时前
查看轨道信息
2025-12-20T06:00:00+0800
1天前
查看轨道信息
半长轴 6927.659km 6927.7km
偏心率 0.0001706 0.0002224
轨道倾角 97.603° 97.602°
近地点辐角 86.496° 94.606°
升交点赤经 173.120° 172.557°
平近点角 273.646° 33.008°
近地点 548.34km 548.022km
远地点 550.704km 551.104km
周期 95.640分钟 95.641分钟
每日圈数 15.056465 15.056333
详细信息
固有亮度:
5
最大亮度:
2.5
卫星平台:
Starlink v1.5
覆盖范围:
全球
运营商:
太空探索技术公司
运营商所在国:
美国
制造商(研发单位):
太空探索技术公司
制造商所在国:
美国
使用方式:
暂无
卫星简介
星链(Starlink)计划是由太空探索技术公司(SpaceX)提出的一个巨型低轨卫星互联网星座项目,计划在2019年至2024年间在太空搭建由约1.2万颗卫星组成的“星链”网络,其中1584颗将部署在地球上空550千米处的近地轨道,并从2020年开始工作。该卫星仍在工作。
2D轨道图
3D轨道图
轨道高度分析图
轨道倾角分析图
轨道综合分析图
查看轨道综合分析图